sat.trackr.live / text

‹ back to catalog

STARLINK-36133

NORAD 66963 · 2025-288E

PAYLOAD ACTIVE UNKNOWN

§ Identity

Operator
Country
US
Launch date
2025-12-08
Launch site
AFETR
Launch vehicle
Mass (kg)
RCS (m²)

Purposes: comms

External: N2YO · Heavens-Above · Gunter

§ Orbital elements

Epoch: 2026-05-24T21:54:14.058144Z

Period
94.27 min
Inclination
43.0018°
Eccentricity
0.0001193
Mean motion
15.27561399 rev/d
Perigee alt
482.3 km
Apogee alt
483.9 km
Semi-major
6,861.2 km
B*
5.7564e-4
RAAN
313.0807°
Arg perigee
282.2046°
Mean anomaly
77.8672°
Rev number
2,694

§ Raw data

STARLINK-361331 66963U 25288E   26144.91266271  .00015603  00000+0  57564-3 0  99902 66963  43.0018 313.0807 0001193 282.2046  77.8672 15.27561399 26944

JSON: /api/v1/satellites/66963 · /tle

For live sub-satellite position, see the globe view (requires WebGL).

§ Visibility from observer

Set your observer location to see the next 7 days of passes ≥ 10°. The values pass through the URL so the page stays shareable.

No JS? Fill the form by hand. The geolocation button needs JavaScript.